Regional Weather Roundup
Issued by NWS

Home | Current Version | Previous Version | Text Only | Print | Product List | Glossary On
Versions: 1 2 3 4 5 6 7 8 9 10 11 12 13 14 15 16 17 18 19 20 21 22 23 24 25 26 27 28 29 30 31 32 33 34 35 36 37 38 39 40 41 42 43 44 45 46 47 48 49 50
000
ASUS44 KOUN 310510
RWROK

WEATHER ROUNDUP FOR OKLAHOMA
NATIONAL WEATHER SERVICE NORMAN OK
1200 AM CDT MON AUG 31 2015

NOTE: "FAIR" INDICATES FEW OR NO CLOUDS BELOW 12,000 FEET WITH NO
      SIGNIFICANT WEATHER AND/OR OBSTRUCTIONS TO VISIBILITY.

OKZ001>007-009>012-014-015-017-310600-
NORTHWEST OKLAHOMA AND THE PANHANDLE

CITY           SKY/WX    TMP DP  RH WIND       PRES   REMARKS
GAGE           CLEAR     70  56  61 SE8       29.96F
GUYMON         CLEAR     71  51  49 S8        29.97S
ENID/WOODRING  CLEAR     73  70  88 E8        29.93S
$$

OKZ016-021>023-033>039-044-045-310600-
SOUTHWEST OKLAHOMA

CITY           SKY/WX    TMP DP  RH WIND       PRES   REMARKS
LAWTON/REGL    CLEAR     72  61  68 CALM      29.93S
LAWTON/FT SILL CLEAR     75  62  63 CALM      29.92S
FREDERICK      CLEAR     77  61  57 S6        29.91R
CLINTON        CLEAR     76  59  55 SE9       29.97F
HOBART         CLEAR     71  56  58 E5        29.95S
ALTUS AFB      CLEAR     72  56  58 NE5       29.93S
$$

OKZ018>020-024>031-310600-
CENTRAL OKLAHOMA

CITY           SKY/WX    TMP DP  RH WIND       PRES   REMARKS
OKLAHOMA CITY  PTCLDY    75  67  76 CALM      29.94F
OKC/WILEY POST CLEAR     77  65  66 SE6       29.94F
OKC/TINKER AFB CLEAR     74  67  78 E7        29.94S
STILLWATER     CLEAR     73  71  93 E6        29.94S
GUTHRIE        CLEAR     76  67  73 SE6       29.94S
$$

OKZ008-013-054>072-310600-
NORTHEAST OKLAHOMA

CITY           SKY/WX    TMP DP  RH WIND       PRES   REMARKS
TULSA          CLEAR     73  70  90 SE5       29.93S
TULSA/JONES    CLEAR     70  68  93 CALM      29.94S
PONCA CITY     CLEAR     75  70  84 E6        29.94S HAZE
MUSKOGEE       CLEAR     70  69  97 S6        29.96F FOG
$$

OKZ032-040>043-046>053-073>077-310600-
SOUTH CENTRAL/SOUTHEAST OKLAHOMA

CITY           SKY/WX    TMP DP  RH WIND       PRES   REMARKS
ARDMORE/DWNTWN CLEAR     77  61  57 S3        29.94R
MCALESTER      CLOUDY    80  67  64 S6        29.95F
$$




USA.gov is the U.S. government's official web portal to all federal, state and local government web resources and services.